Time,TemperatureF,DewpointF,PressureIn,WindDirection,WindDirectionDegrees,WindSpeedMPH,WindSpeedGustMPH,Humidity,HourlyPrecipIn,Conditions,Clouds,dailyrainin,SoftwareType,DateUTC
2013-04-13 00:02:00,30.0,27.0,-100.00,WNW,290,13.0,18.0,88,0.01,,,-99.99,,2013-04-13 05:02:00,
2013-04-13 00:12:00,30.0,27.0,-100.00,WNW,290,13.0,18.0,88,0.01,,,-99.99,,2013-04-13 05:12:00,
2013-04-13 00:22:00,30.0,27.0,-100.00,WNW,295,13.0,17.0,89,0.01,,,-99.99,,2013-04-13 05:22:00,
2013-04-13 00:32:00,30.0,27.0,-100.00,WNW,295,11.0,17.0,89,0.01,,,-99.99,,2013-04-13 05:32:00,
2013-04-13 00:42:00,30.0,27.0,-100.00,WNW,295,11.0,17.0,89,0.01,,,-99.99,,2013-04-13 05:42:00,
2013-04-13 00:52:00,30.0,27.0,-100.00,WNW,295,14.0,18.0,89,0.00,,,-99.99,,2013-04-13 05:52:00,
2013-04-13 01:02:00,30.0,27.0,-100.00,WNW,285,9.0,14.0,89,0.01,,,-99.99,,2013-04-13 06:02:00,
2013-04-13 01:12:00,30.0,27.0,-100.00,WNW,285,9.0,14.0,89,0.01,,,-99.99,,2013-04-13 06:12:00,
2013-04-13 01:23:00,30.0,27.0,-100.00,WNW,290,11.0,12.0,89,0.01,,,-99.99,,2013-04-13 06:23:00,
2013-04-13 01:34:00,30.0,27.0,-100.00,WNW,295,12.0,16.0,90,0.01,,,-99.99,,2013-04-13 06:34:00,
2013-04-13 01:46:00,30.0,27.0,-100.00,West,280,10.0,16.0,90,0.00,,,-99.99,,2013-04-13 06:46:00,
2013-04-13 01:55:00,29.0,27.0,-100.00,WNW,290,15.0,17.0,90,0.00,,,-99.99,,2013-04-13 06:55:00,
2013-04-13 02:05:00,29.0,27.0,-100.00,WNW,290,15.0,18.0,90,0.00,,,-99.99,,2013-04-13 07:05:00,
2013-04-13 02:14:00,29.0,27.0,-100.00,WNW,290,15.0,18.0,90,0.00,,,-99.99,,2013-04-13 07:14:00,
2013-04-13 02:23:00,29.0,27.0,-100.00,West,280,16.0,19.0,90,0.00,,,-99.99,,2013-04-13 07:23:00,
2013-04-13 02:34:00,29.0,26.0,-100.00,WNW,285,15.0,19.0,90,0.00,,,-99.99,,2013-04-13 07:34:00,
2013-04-13 02:44:00,29.0,26.0,-100.00,WNW,285,15.0,20.0,88,0.00,,,-99.99,,2013-04-13 07:44:00,
2013-04-13 02:56:00,29.0,26.0,-100.00,WNW,285,17.0,23.0,87,0.00,,,-99.99,,2013-04-13 07:56:00,
2013-04-13 03:06:00,29.0,26.0,-100.00,WNW,285,17.0,23.0,87,0.00,,,-99.99,,2013-04-13 08:06:00,
2013-04-13 03:14:00,29.0,26.0,-100.00,WNW,285,14.0,20.0,87,0.00,,,-99.99,,2013-04-13 08:14:00,
2013-04-13 03:24:00,29.0,25.0,-100.00,WNW,295,15.0,20.0,87,0.00,,,-99.99,,2013-04-13 08:24:00,
2013-04-13 03:45:00,29.0,26.0,-100.00,WNW,290,13.0,17.0,88,0.00,,,-99.99,,2013-04-13 08:45:00,
2013-04-13 03:54:00,29.0,26.0,-100.00,WNW,290,13.0,17.0,88,0.00,,,-99.99,,2013-04-13 08:54:00,
2013-04-13 04:04:00,29.0,26.0,-100.00,WNW,290,13.0,17.0,88,0.00,,,-99.99,,2013-04-13 09:04:00,
2013-04-13 04:14:00,29.0,26.0,-100.00,WNW,290,13.0,17.0,88,0.00,,,-99.99,,2013-04-13 09:14:00,
2013-04-13 04:24:00,29.0,26.0,-100.00,WNW,285,14.0,21.0,89,0.00,,,-99.99,,2013-04-13 09:24:00,
2013-04-13 04:38:00,29.0,26.0,-100.00,WNW,285,13.0,19.0,89,0.00,,,-99.99,,2013-04-13 09:38:00,
2013-04-13 04:53:00,29.0,26.0,-100.00,WNW,285,13.0,19.0,89,0.00,,,-99.99,,2013-04-13 09:53:00,
2013-04-13 05:05:00,29.0,26.0,-100.00,WNW,295,16.0,19.0,90,0.00,,,-99.99,,2013-04-13 10:05:00,
2013-04-13 05:15:00,28.0,26.0,-100.00,WNW,295,16.0,21.0,89,0.00,,,-99.99,,2013-04-13 10:15:00,
2013-04-13 05:24:00,28.0,26.0,-100.00,WNW,290,14.0,18.0,89,0.00,,,-99.99,,2013-04-13 10:24:00,
2013-04-13 05:36:00,28.0,26.0,-100.00,WNW,295,16.0,20.0,89,0.00,,,-99.99,,2013-04-13 10:36:00,
2013-04-13 05:45:00,28.0,25.0,-100.00,WNW,300,14.0,19.0,89,0.00,,,-99.99,,2013-04-13 10:45:00,
2013-04-13 05:53:00,28.0,25.0,-100.00,WNW,285,13.0,21.0,89,0.00,,,-99.99,,2013-04-13 10:53:00,
2013-04-13 06:05:00,28.0,25.0,-100.00,WNW,285,13.0,21.0,89,0.00,,,-99.99,,2013-04-13 11:05:00,
2013-04-13 06:13:00,28.0,25.0,-100.00,NW,305,16.0,19.0,89,0.00,,,-99.99,,2013-04-13 11:13:00,
2013-04-13 06:23:00,28.0,25.0,-100.00,WNW,295,12.0,20.0,88,0.00,,,-99.99,,2013-04-13 11:23:00,
2013-04-13 06:44:00,28.0,25.0,-100.00,WNW,295,14.0,21.0,88,0.00,,,-99.99,,2013-04-13 11:44:00,
2013-04-13 06:53:00,28.0,25.0,-100.00,WNW,290,15.0,21.0,88,0.00,,,-99.99,,2013-04-13 11:53:00,
2013-04-13 07:08:00,28.0,25.0,-100.00,WNW,290,15.0,21.0,88,0.00,,,-99.99,,2013-04-13 12:08:00,
2013-04-13 07:14:00,28.0,25.0,-100.00,WNW,295,10.0,21.0,86,0.00,,,-99.99,,2013-04-13 12:14:00,
2013-04-13 07:24:00,28.0,25.0,-100.00,WNW,295,12.0,18.0,85,0.00,,,-99.99,,2013-04-13 12:24:00,
2013-04-13 07:35:00,28.0,24.0,-100.00,WNW,300,15.0,20.0,84,0.00,,,-99.99,,2013-04-13 12:35:00,
2013-04-13 07:46:00,28.0,24.0,-100.00,WNW,300,15.0,20.0,84,0.00,,,-99.99,,2013-04-13 12:46:00,
2013-04-13 07:55:00,29.0,24.0,-100.00,NW,305,17.0,21.0,81,0.00,,,-99.99,,2013-04-13 12:55:00,
2013-04-13 08:05:00,29.0,24.0,-100.00,NW,305,17.0,21.0,81,0.00,,,-99.99,,2013-04-13 13:05:00,
2013-04-13 08:15:00,29.0,24.0,-100.00,WNW,300,14.0,21.0,80,0.00,,,-99.99,,2013-04-13 13:15:00,
2013-04-13 08:24:00,29.0,24.0,-100.00,WNW,295,14.0,17.0,81,0.00,,,-99.99,,2013-04-13 13:24:00,
2013-04-13 08:34:00,29.0,24.0,-100.00,WNW,295,14.0,17.0,81,0.00,,,-99.99,,2013-04-13 13:34:00,
2013-04-13 08:45:00,29.0,25.0,-100.00,WNW,295,12.0,16.0,82,0.00,,,-99.99,,2013-04-13 13:45:00,
2013-04-13 08:53:00,29.0,25.0,-100.00,WNW,300,12.0,17.0,82,0.00,,,-99.99,,2013-04-13 13:53:00,
2013-04-13 09:04:00,29.0,25.0,-100.00,WNW,300,12.0,17.0,82,0.00,,,-99.99,,2013-04-13 14:04:00,
2013-04-13 09:14:00,30.0,25.0,-100.00,WNW,300,11.0,18.0,82,0.00,,,-99.99,,2013-04-13 14:14:00,
2013-04-13 09:23:00,30.0,25.0,-100.00,WNW,300,12.0,17.0,81,0.00,,,-99.99,,2013-04-13 14:23:00,
2013-04-13 09:36:00,31.0,25.0,-100.00,WNW,300,13.0,21.0,77,0.00,,,-99.99,,2013-04-13 14:36:00,
2013-04-13 09:45:00,31.0,25.0,-100.00,WNW,300,14.0,19.0,77,0.00,,,-99.99,,2013-04-13 14:45:00,
2013-04-13 09:54:00,31.0,25.0,-100.00,WNW,295,15.0,17.0,77,0.00,,,-99.99,,2013-04-13 14:54:00,
2013-04-13 10:04:00,31.0,25.0,-100.00,WNW,295,15.0,17.0,77,0.00,,,-99.99,,2013-04-13 15:04:00,
2013-04-13 10:14:00,32.0,25.0,-100.00,NW,305,12.0,17.0,76,0.00,,,-99.99,,2013-04-13 15:14:00,
2013-04-13 10:27:00,32.0,25.0,-100.00,West,280,15.0,19.0,76,0.00,,,-99.99,,2013-04-13 15:27:00,
2013-04-13 10:35:00,33.0,26.0,-100.00,WNW,285,14.0,18.0,75,0.00,,,-99.99,,2013-04-13 15:35:00,
2013-04-13 10:44:00,33.0,26.0,-100.00,WNW,285,14.0,18.0,75,0.00,,,-99.99,,2013-04-13 15:44:00,
2013-04-13 10:54:00,32.0,25.0,-100.00,West,275,12.0,17.0,75,0.00,,,-99.99,,2013-04-13 15:54:00,
2013-04-13 11:05:00,32.0,25.0,-100.00,West,275,12.0,17.0,75,0.00,,,-99.99,,2013-04-13 16:05:00,
2013-04-13 11:14:00,33.0,26.0,-100.00,West,275,13.0,17.0,75,0.00,,,-99.99,,2013-04-13 16:14:00,
2013-04-13 11:24:00,33.0,25.0,-100.00,West,265,13.0,18.0,74,0.00,,,-99.99,,2013-04-13 16:24:00,
2013-04-13 11:35:00,34.0,26.0,-100.00,West,280,11.0,19.0,73,0.00,,,-99.99,,2013-04-13 16:35:00,
2013-04-13 11:44:00,34.0,26.0,-100.00,West,280,11.0,19.0,73,0.00,,,-99.99,,2013-04-13 16:44:00,
2013-04-13 11:53:00,35.0,26.0,-100.00,WNW,290,14.0,19.0,70,0.00,,,-99.99,,2013-04-13 16:53:00,
2013-04-13 12:05:00,35.0,26.0,-100.00,WNW,290,14.0,19.0,70,0.00,,,-99.99,,2013-04-13 17:05:00,
2013-04-13 12:24:00,36.0,25.0,-100.00,West,280,9.0,20.0,63,0.00,,,-99.99,,2013-04-13 17:24:00,
2013-04-13 12:37:00,36.0,24.0,-100.00,WNW,295,13.0,18.0,61,0.00,,,-99.99,,2013-04-13 17:37:00,
2013-04-13 12:43:00,36.0,24.0,-100.00,WNW,295,13.0,18.0,61,0.00,,,-99.99,,2013-04-13 17:43:00,
2013-04-13 12:57:00,36.0,24.0,-100.00,WNW,290,16.0,20.0,60,0.00,,,-99.99,,2013-04-13 17:57:00,
2013-04-13 13:05:00,36.0,24.0,-100.00,WNW,290,16.0,20.0,60,0.00,,,-99.99,,2013-04-13 18:05:00,
2013-04-13 13:14:00,36.0,24.0,-100.00,WNW,295,15.0,21.0,62,0.00,,,-99.99,,2013-04-13 18:14:00,
2013-04-13 13:24:00,36.0,24.0,-100.00,West,280,13.0,19.0,62,0.00,,,-99.99,,2013-04-13 18:24:00,
2013-04-13 13:32:00,36.0,25.0,-100.00,WNW,300,12.0,17.0,63,0.00,,,-99.99,,2013-04-13 18:32:00,
2013-04-13 13:42:00,36.0,25.0,-100.00,WNW,300,12.0,17.0,63,0.00,,,-99.99,,2013-04-13 18:42:00,
2013-04-13 13:52:00,37.0,26.0,-100.00,WNW,290,12.0,16.0,62,0.00,,,-99.99,,2013-04-13 18:52:00,
2013-04-13 14:03:00,37.0,26.0,-100.00,WNW,290,12.0,16.0,62,0.00,,,-99.99,,2013-04-13 19:03:00,
2013-04-13 14:12:00,37.0,25.0,-100.00,WNW,300,12.0,17.0,61,0.00,,,-99.99,,2013-04-13 19:12:00,
2013-04-13 14:22:00,38.0,26.0,-100.00,NW,315,9.0,14.0,61,0.00,,,-99.99,,2013-04-13 19:22:00,
2013-04-13 14:32:00,38.0,25.0,-100.00,WNW,295,9.0,16.0,58,0.00,,,-99.99,,2013-04-13 19:32:00,
2013-04-13 14:42:00,38.0,25.0,-100.00,WNW,295,9.0,16.0,58,0.00,,,-99.99,,2013-04-13 19:42:00,
2013-04-13 14:52:00,38.0,25.0,-100.00,NW,315,11.0,15.0,58,0.00,,,-99.99,,2013-04-13 19:52:00,
2013-04-13 15:02:00,38.0,25.0,-100.00,NW,315,11.0,15.0,58,0.00,,,-99.99,,2013-04-13 20:02:00,
2013-04-13 15:12:00,41.0,27.0,-100.00,NW,310,9.0,15.0,57,0.00,,,-99.99,,2013-04-13 20:12:00,
2013-04-13 15:22:00,40.0,26.0,-100.00,NNW,340,8.0,14.0,55,0.00,,,-99.99,,2013-04-13 20:22:00,
2013-04-13 15:32:00,40.0,25.0,-100.00,NW,310,9.0,13.0,55,0.00,,,-99.99,,2013-04-13 20:32:00,
2013-04-13 15:42:00,40.0,25.0,-100.00,NW,310,9.0,13.0,55,0.00,,,-99.99,,2013-04-13 20:42:00,
2013-04-13 15:52:00,42.0,26.0,-100.00,NNW,345,6.0,12.0,52,0.00,,,-99.99,,2013-04-13 20:52:00,
2013-04-13 16:02:00,42.0,26.0,-100.00,NNW,345,6.0,12.0,52,0.00,,,-99.99,,2013-04-13 21:02:00,
2013-04-13 16:12:00,42.0,26.0,-100.00,WSW,245,6.0,9.0,50,0.00,,,-99.99,,2013-04-13 21:12:00,
2013-04-13 16:22:00,42.0,26.0,-100.00,West,260,4.0,10.0,50,0.00,,,-99.99,,2013-04-13 21:22:00,
2013-04-13 16:32:00,42.0,25.0,-100.00,West,270,10.0,13.0,51,0.00,,,-99.99,,2013-04-13 21:32:00,
2013-04-13 16:43:00,42.0,25.0,-100.00,West,270,10.0,13.0,51,0.00,,,-99.99,,2013-04-13 21:43:00,
2013-04-13 16:52:00,44.0,26.0,-100.00,WNW,290,9.0,13.0,48,0.00,,,-99.99,,2013-04-13 21:52:00,
2013-04-13 17:03:00,44.0,26.0,-100.00,WNW,290,9.0,13.0,48,0.00,,,-99.99,,2013-04-13 22:03:00,
2013-04-13 17:12:00,43.0,24.0,-100.00,WSW,245,7.0,11.0,47,0.00,,,-99.99,,2013-04-13 22:12:00,
2013-04-13 17:22:00,43.0,24.0,-100.00,SW,220,4.0,10.0,48,0.00,,,-99.99,,2013-04-13 22:22:00,
2013-04-13 17:33:00,41.0,23.0,-100.00,WNW,285,5.0,11.0,47,0.00,,,-99.99,,2013-04-13 22:33:00,
2013-04-13 17:42:00,41.0,23.0,-100.00,WNW,285,5.0,11.0,47,0.00,,,-99.99,,2013-04-13 22:42:00,
2013-04-13 17:52:00,42.0,24.0,-100.00,WNW,285,4.0,7.0,48,0.00,,,-99.99,,2013-04-13 22:52:00,
2013-04-13 18:02:00,42.0,24.0,-100.00,WNW,285,4.0,7.0,48,0.00,,,-99.99,,2013-04-13 23:02:00,
2013-04-13 18:12:00,41.0,23.0,-100.00,WSW,250,2.0,7.0,49,0.00,,,-99.99,,2013-04-13 23:12:00,
2013-04-13 18:22:00,41.0,24.0,-100.00,West,265,2.0,6.0,49,0.00,,,-99.99,,2013-04-13 23:22:00,
2013-04-13 18:32:00,41.0,24.0,-100.00,West,265,2.0,6.0,49,0.00,,,-99.99,,2013-04-13 23:32:00,
2013-04-13 18:42:00,41.0,23.0,-100.00,WNW,290,3.0,5.0,49,0.00,,,-99.99,,2013-04-13 23:42:00,
2013-04-13 18:52:00,40.0,23.0,-100.00,NNE,20,1.0,7.0,50,0.00,,,-99.99,,2013-04-13 23:52:00,
2013-04-13 19:02:00,40.0,23.0,-100.00,NNE,20,1.0,7.0,50,0.00,,,-99.99,,2013-04-14 00:02:00,
2013-04-13 19:12:00,40.0,24.0,-100.00,NW,310,1.0,2.0,51,0.00,,,-99.99,,2013-04-14 00:12:00,
2013-04-13 19:22:00,40.0,24.0,-100.00,NNE,15,2.0,4.0,51,0.00,,,-99.99,,2013-04-14 00:22:00,
2013-04-13 19:32:00,39.0,24.0,-100.00,ENE,60,1.0,2.0,53,0.00,,,-99.99,,2013-04-14 00:32:00,
2013-04-13 19:42:00,39.0,24.0,-100.00,East,85,3.0,4.0,54,0.00,,,-99.99,,2013-04-14 00:42:00,
2013-04-13 19:52:00,38.0,24.0,-100.00,NE,45,3.0,4.0,55,0.00,,,-99.99,,2013-04-14 00:52:00,
2013-04-13 20:02:00,38.0,24.0,-100.00,NE,45,3.0,4.0,55,0.00,,,-99.99,,2013-04-14 01:02:00,
2013-04-13 20:12:00,38.0,25.0,-100.00,ENE,75,1.0,4.0,58,0.00,,,-99.99,,2013-04-14 01:12:00,
2013-04-13 20:22:00,38.0,25.0,-100.00,ENE,65,2.0,2.0,59,0.00,,,-99.99,,2013-04-14 01:22:00,
2013-04-13 20:32:00,38.0,26.0,-100.00,SE,130,0.0,2.0,60,0.00,,,-99.99,,2013-04-14 01:32:00,
2013-04-13 20:42:00,37.0,26.0,-100.00,East,100,1.0,2.0,62,0.00,,,-99.99,,2013-04-14 01:42:00,
2013-04-13 20:52:00,37.0,26.0,-100.00,East,100,1.0,2.0,62,0.00,,,-99.99,,2013-04-14 01:52:00,
2013-04-13 21:02:00,37.0,26.0,-100.00,East,100,1.0,2.0,62,0.00,,,-99.99,,2013-04-14 02:02:00,
2013-04-13 21:12:00,37.0,27.0,-100.00,East,80,3.0,4.0,65,0.00,,,-99.99,,2013-04-14 02:12:00,
2013-04-13 21:22:00,37.0,27.0,-100.00,East,80,3.0,4.0,65,0.00,,,-99.99,,2013-04-14 02:22:00,
2013-04-13 21:32:00,37.0,27.0,-100.00,East,95,3.0,5.0,65,0.00,,,-99.99,,2013-04-14 02:32:00,
2013-04-13 21:42:00,37.0,27.0,-100.00,ENE,75,3.0,6.0,67,0.00,,,-99.99,,2013-04-14 02:42:00,
2013-04-13 21:52:00,37.0,28.0,-100.00,East,95,4.0,7.0,68,0.00,,,-99.99,,2013-04-14 02:52:00,
2013-04-13 22:02:00,37.0,28.0,-100.00,East,95,4.0,7.0,68,0.00,,,-99.99,,2013-04-14 03:02:00,
2013-04-13 22:12:00,37.0,28.0,-100.00,East,95,4.0,7.0,68,0.00,,,-99.99,,2013-04-14 03:12:00,
2013-04-13 22:22:00,37.0,28.0,-100.00,East,95,4.0,7.0,68,0.00,,,-99.99,,2013-04-14 03:22:00,
2013-04-13 22:33:00,36.0,28.0,-100.00,East,80,7.0,9.0,70,0.00,,,-99.99,,2013-04-14 03:33:00,
2013-04-13 22:42:00,36.0,28.0,-100.00,East,80,7.0,9.0,70,0.00,,,-99.99,,2013-04-14 03:42:00,
2013-04-13 22:53:00,36.0,29.0,-100.00,ENE,75,6.0,11.0,75,0.00,,,-99.99,,2013-04-14 03:53:00,
2013-04-13 23:02:00,36.0,29.0,-100.00,ENE,75,6.0,11.0,75,0.00,,,-99.99,,2013-04-14 04:02:00,
2013-04-13 23:12:00,35.0,29.0,-100.00,East,80,7.0,13.0,79,0.00,,,-99.99,,2013-04-14 04:12:00,
2013-04-13 23:23:00,35.0,29.0,-100.00,East,85,6.0,12.0,79,0.00,,,-99.99,,2013-04-14 04:23:00,
2013-04-13 23:32:00,35.0,29.0,-100.00,East,85,6.0,12.0,79,0.00,,,-99.99,,2013-04-14 04:32:00,
2013-04-13 23:43:00,35.0,29.0,-100.00,East,80,11.0,14.0,80,0.00,,,-99.99,,2013-04-14 04:43:00,
2013-04-13 23:52:00,35.0,29.0,-100.00,East,80,11.0,14.0,80,0.00,,,-99.99,,2013-04-14 04:52:00,